Barksdale AFB, LA

10:38 AM CST on February 19, 2018 (GMT -0600)
Barksdale Air Force Base

Weather History for KBAD - October, 2012

Change the Weather History Date:

Wednesday, October 17, 2012

  Actual Average Record
Temperature  
Mean Temperature 71 °F -  
Max Temperature 83 °F 74 °F 88 °F (2011)
Min Temperature 59 °F 53 °F 39 °F (2001)
Cooling Degree Days 6    
Growing Degree Days 21 (Base 50)    
Moisture  
Dew Point 63 °F    
Average Humidity 76    
Maximum Humidity 95    
Minimum Humidity 60    
Precipitation  
Precipitation 0.00 in - - ()
Sea Level Pressure  
Sea Level Pressure 29.69 in    
Wind  
Wind Speed 12 mph (South)    
Max Wind Speed 17 mph    
Max Gust Speed 26 mph    
Visibility 10 miles    
Events      
Averages and records for this station are not official NWS values.
T = Trace of Precipitation, MM = Missing Value Source: NWS Daily Summary

Daily Weather History Graph

Daily Weather History Graph

Search for Another Location

Airport or City:

Trip Planner

Search our weather history database for the weather conditions in past years. The results will help you decide how hot, cold, wet, or windy it might be!

Date:

Astronomy

Oct. 17, 2012 Rise Set
Actual Time 7:20 AM CDT 6:38 PM CDT
Civil Twilight 6:55 AM CDT 7:03 PM CDT
Nautical Twilight 6:26 AM CDT 7:32 PM CDT
Astronomical Twilight 5:58 AM CDT 8:00 PM CDT
Moon 9:45 AM CDT (10/17) 8:26 PM CDT (10/17)
Length of Visible Light 12h 08m
Length of Day
11h 18m
Waxing Crescent, 7% of the Moon is Illuminated
Oct 17
Waxing Crescent
Oct 21
First Quarter
Oct 29
Full
Nov 6
Last Quarter
Nov 13
New

Hourly Weather History & Observations

Time (CDT) Temp. Heat Index Dew Point Humidity Pressure Visibility Wind Dir Wind Speed Gust Speed Precip Events Conditions
12:55 AM 61.3 °F - 59.0 °F 92% 29.78 in 10.0 mi South 11.5 mph - N/A   Clear
1:55 AM 61.7 °F - 59.0 °F 91% 29.79 in 10.0 mi SSE 9.2 mph - N/A   Clear
2:55 AM 61.5 °F - 59.5 °F 93% 29.77 in 10.0 mi South 10.4 mph - N/A   Clear
3:55 AM 61.0 °F - 59.2 °F 94% 29.76 in 10.0 mi South 10.4 mph - N/A   Clear
4:55 AM 59.7 °F - 58.3 °F 95% 29.76 in 10.0 mi South 8.1 mph - N/A   Clear
5:55 AM 59.4 °F - 57.9 °F 95% 29.75 in 10.0 mi SSE 8.1 mph - N/A   Clear
6:55 AM 59.9 °F - 57.6 °F 92% 29.75 in 10.0 mi South 10.4 mph - N/A   Clear
7:55 AM 60.3 °F - 57.7 °F 91% 29.74 in 10.0 mi South 13.8 mph - N/A   Overcast
8:01 AM 60.8 °F - 57.2 °F 88% 29.74 in 10.0 mi South 12.7 mph - N/A   Overcast
8:55 AM 62.2 °F - 58.8 °F 89% 29.74 in 10.0 mi South 11.5 mph - N/A   Scattered Clouds
9:55 AM 66.6 °F - 60.6 °F 81% 29.74 in 10.0 mi South 10.4 mph - N/A   Partly Cloudy
10:15 AM 68.0 °F - 60.8 °F 78% 29.74 in 10.0 mi South 10.4 mph - N/A   Mostly Cloudy
10:55 AM 72.1 °F - 63.1 °F 73% 29.73 in 10.0 mi South 15.0 mph - N/A   Mostly Cloudy
11:00 AM 73.4 °F - 62.6 °F 69% 29.72 in 10.0 mi South 13.8 mph - N/A   Mostly Cloudy
11:49 AM 75.2 °F - 66.2 °F 73% 29.70 in 10.0 mi South 15.0 mph 21.9 mph N/A   Overcast
11:55 AM 75.2 °F - 65.7 °F 72% 29.69 in 10.0 mi South 16.1 mph - N/A   Overcast
12:55 PM 78.6 °F - 66.9 °F 67% 29.66 in 10.0 mi South 15.0 mph 25.3 mph N/A   Mostly Cloudy
1:55 PM 80.2 °F 82.7 °F 67.6 °F 65% 29.62 in 10.0 mi South 17.3 mph 25.3 mph N/A   Mostly Cloudy
2:05 PM 80.6 °F 83.2 °F 68.0 °F 65% 29.62 in 10.0 mi South 13.8 mph - N/A   Mostly Cloudy
2:10 PM 80.6 °F 83.2 °F 68.0 °F 65% 29.61 in 10.0 mi South 15.0 mph 23.0 mph N/A   Mostly Cloudy
2:17 PM 80.6 °F 83.2 °F 68.0 °F 65% 29.61 in 10.0 mi South 16.1 mph 23.0 mph N/A   Mostly Cloudy
2:55 PM 81.9 °F 84.6 °F 67.5 °F 62% 29.60 in 10.0 mi SSW 15.0 mph 26.5 mph N/A   Mostly Cloudy
3:55 PM 83.5 °F 86.7 °F 68.2 °F 60% 29.58 in 10.0 mi SSW 17.3 mph 23.0 mph N/A   Mostly Cloudy
4:55 PM 83.3 °F 86.9 °F 69.1 °F 62% 29.58 in 10.0 mi SSW 13.8 mph 21.9 mph N/A   Mostly Cloudy
5:55 PM 81.9 °F 85.2 °F 69.1 °F 65% 29.59 in 10.0 mi SSW 10.4 mph - N/A   Mostly Cloudy
6:55 PM 79.5 °F - 69.1 °F 70% 29.60 in 10.0 mi South 5.8 mph - N/A   Scattered Clouds
7:55 PM 77.9 °F - 69.1 °F 74% 29.61 in 6.0 mi SSW 5.8 mph - N/A   Haze
8:55 PM 76.8 °F - 68.9 °F 76% 29.63 in 6.0 mi SSW 6.9 mph - N/A   Haze
9:55 PM 77.2 °F - 66.2 °F 69% 29.68 in 10.0 mi WNW 10.4 mph - N/A   Partly Cloudy
10:55 PM 72.9 °F - 59.9 °F 64% 29.71 in 10.0 mi NW 9.2 mph - N/A   Clear
11:55 PM 71.2 °F - 58.5 °F 64% 29.73 in 10.0 mi NNW 9.2 mph - N/A   Clear